Regional Weather Roundup
Issued by NWS

Home | Current Version | Previous Version | Graphics & Text | Print | Product List | Glossary Off
Versions: 1 2 3 4 5 6 7 8 9 10 11 12 13 14 15 16 17 18 19 20 21 22 23 24 25 26 27 28 29 30 31 32 33 34 35 36 37 38 39 40 41 42 43 44 45 46 47 48 49 50

296
ASUS43 KTOP 201108
RWRKS

WEATHER ROUNDUP FOR KANSAS
NATIONAL WEATHER SERVICE GOODLAND KS
600 AM CDT THU JUL 20 2017

NOTE:  "FAIR" INDICATES FEW OR NO CLOUDS BELOW 12,000 FEET WITH NO
SIGNIFICANT WEATHER AND/OR OBSTRUCTIONS TO VISIBILITY.

KSZ001>006-013>018-027>032-041>047-201200-
NORTHWEST KANSAS

CITY           SKY/WX    TMP DP  RH WIND       PRES   REMARKS
GOODLAND       CLEAR     64  59  83 CALM      30.04R
HAYS           CLEAR     75  64  68 S6        30.02R
HILL CITY      PTCLDY    77  62  59 SW8       30.00R
RUSSELL        CLEAR     77  65  66 S13       30.00R
$$

KSZ061>065-074>080-084>089-201200-
SOUTHWEST KANSAS

CITY           SKY/WX    TMP DP  RH WIND       PRES   REMARKS
DODGE CITY     CLEAR     75  62  64 S10       30.06R
ELKHART          N/A     72  51  47 S8          N/A
GARDEN CITY    CLEAR     71  61  70 S10       30.05R
LIBERAL        CLEAR     71  61  70 S10       30.09R
PRATT          CLEAR     73  64  73 S12       30.06R
$$

KSZ066>073-081>083-090>101-201200-
SOUTHEAST KANSAS

CITY           SKY/WX    TMP DP  RH WIND       PRES   REMARKS
CHANUTE        CLEAR     77  72  84 S8        30.07S
COFFEYVILLE    CLEAR     76  74  93 S3        30.08R
HUTCHINSON     CLEAR     77  68  73 S8        30.04R
MEDICINE LODGE   N/A     76  66  71 SE6       30.05R
NEWTON         CLEAR     79  69  71 S12       30.06R
PARSONS        CLEAR     76  73  91 CALM      30.09R
WICHITA INTL   PTCLDY    77  71  82 S8        30.05R
WICHITA JABRA  CLEAR     79  70  74 S12       30.05R
WICHITA MCCONL CLEAR     77  69  75 S10       30.05R
WINFIELD       CLEAR     77  69  76 S8        30.07R
$$

KSZ007>012-019>026-033>040-048>060-102>105-201200-
NORTHEAST KANSAS

CITY           SKY/WX    TMP DP  RH WIND       PRES   REMARKS
CONCORDIA      CLEAR     78  67  68 S14       29.99R
EMPORIA        CLEAR     74  70  87 S9        30.05R
LAWRENCE       CLEAR     77  72  84 SE6       30.02S
MANHATTAN      CLEAR     77  70  79 SW6       30.01R
MARYSVILLE     CLEAR     77  68  73 S8        29.99S
OLATHE IND     CLEAR     75  71  87 S7        30.05R
OLATHE EXE     CLEAR     74  72  93 S7        30.05R
SALINA         CLEAR     81  68  64 S13       30.00S
TOPEKA BILLARD CLEAR     78  72  81 CALM      30.01R
TOPEKA FORBES  CLEAR     78  72  81 S8        30.02S
$$




USA.gov is the U.S. government's official web portal to all federal, state and local government web resources and services.